Tracking 25693 objects as of 30-Jun-2022
HD Live streaming from Space Station
objects crossing your sky now

STARLINK-1835

Track STARLINK-1835 now!
10-day predictions
STARLINK-1835 is classified as:


NORAD ID: 46782
Int'l Code: 2020-074AV
Perigee: 553.4 km
Apogee: 555.4 km
Inclination: 53.1 °
Period: 95.6 minutes
Semi major axis: 6925 km
RCS: Unknown
Launch date: October 24, 2020
Source: United States (US)
Launch site: AIR FORCE EASTERN TEST RANGE (AFETR)
aabbcc
Your satellite tracking list
Your tracking list is empty




NASA's NSSDC Master Catalog

Two Line Element Set (TLE):
1 46782U 20074AV  22181.58508765 -.00000304  00000-0 -15091-5 0  9998
2 46782  53.0549 243.4926 0001454  69.0561 291.0583 15.06395141 93629
Source of the keplerian elements: AFSPC